Location: Treviso
(45.6669°N, 12.2430°E)
Time: 10:56:08
(UTC+01:00)

ISS - Pass Details

Date: 19 March 2023
Orbit: 414 x 423 km, 51.6° (Epoch: 20 March)

Event Time Altitude Azimuth Distance (km) Brightness Sun altitude
Rises 21:02:02 0° 276° (W) 2,355 1.0 -27.5°
Reaches altitude 10° 21:04:17 10° 288° (WNW) 1,492 -0.1 -27.8°
Enters shadow 21:05:42 20° 305° (NW) 1,028 -1.1 -28.1°
